EW1587 Weather Reports


Display with metric or nautical units.
time (UTC)temp
F
wind
direction
speed
MPH
gust
MPH
rain 1hr
in
rain 24hr
in
rain mn
in
humidity
%
barometer
mb
20260506211501 42 351 5.0 13.0 0.00 0.00 0.00 50 1017.2
20260506211002 42 336 4.0 13.0 0.00 0.00 0.00 51 1017.3
20260506210502 42 285 7.0 13.0 0.00 0.00 0.00 51 1017.3
20260506210003 42 283 6.0 13.0 0.00 0.00 0.00 51 1017.3
20260506205601 42 266 6.0 16.0 0.00 0.00 0.00 51 1017.4
20260506205100 42 316 9.0 16.0 0.00 0.00 0.00 51 1017.3
20260506204602 42 35 3.0 12.0 0.00 0.00 0.00 51 1017.4
20260506204103 42 278 6.0 20.0 0.00 0.00 0.00 50 1017.5
20260506203600 42 307 11.0 20.0 0.00 0.00 0.00 50 1017.5
20260506203100 42 333 5.0 10.0 0.00 0.00 0.00 52 1017.5
20260506202559 42 248 4.0 15.0 0.00 0.00 0.00 51 1017.5
20260506202100 42 284 7.0 17.0 0.00 0.00 0.00 50 1017.6
20260506201559 43 283 9.0 17.0 0.00 0.00 0.00 51 1017.5
20260506201058 43 332 1.0 13.0 0.00 0.00 0.00 51 1017.5
20260506200558 42 332 4.0 19.0 0.00 0.00 0.00 52 1017.6
20260506200058 42 269 13.0 19.0 0.00 0.00 0.00 50 1017.6
20260506195558 43 315 5.0 14.0 0.00 0.00 0.00 49 1017.6
20260506195102 43 360 4.0 14.0 0.00 0.00 0.00 51 1017.7
20260506194601 43 262 2.0 14.0 0.00 0.00 0.00 53 1017.6
20260506194056 42 336 3.0 16.0 0.00 0.00 0.00 52 1017.6
20260506193554 41 277 7.0 14.0 0.00 0.00 0.00 52 1017.4
20260506193054 42 347 6.0 12.0 0.00 0.00 0.00 52 1017.8
20260506192553 42 15 4.0 15.0 0.00 0.00 0.00 54 1017.7
20260506192054 41 273 7.0 16.0 0.00 0.00 0.00 54 1017.7
20260506191552 41 260 8.0 19.0 0.00 0.00 0.00 52 1017.7
20260506191051 41 330 8.0 19.0 0.00 0.00 0.00 53 1017.7
20260506190550 41 318 2.0 14.0 0.00 0.00 0.00 54 1017.8
20260506190051 41 270 8.0 14.0 0.00 0.00 0.00 54 1017.8
20260506185550 40 274 3.0 10.0 0.00 0.00 0.00 53 1017.8
20260506185052 41 320 5.0 10.0 0.00 0.00 0.00 53 1017.8
20260506184553 41 314 5.0 10.0 0.00 0.00 0.00 53 1017.8
20260506184049 40 50 1.0 12.0 0.00 0.00 0.00 55 1017.9
20260506183549 40 294 1.0 13.0 0.00 0.00 0.00 55 1017.9
20260506183055 40 311 8.0 15.0 0.00 0.00 0.00 55 1017.9
20260506182548 40 307 6.0 15.0 0.00 0.00 0.00 55 1018.0
20260506182045 40 6 5.0 14.0 0.00 0.00 0.00 55 1018.0
20260506181611 40 298 6.0 13.0 0.00 0.00 0.00 55 1018.1
20260506181044 39 295 2.0 13.0 0.00 0.00 0.00 58 1018.1
20260506180544 40 312 8.0 13.0 0.00 0.00 0.00 55 1018.1
20260506180044 40 238 6.0 14.0 0.00 0.00 0.00 57 1018.1
20260506175544 39 342 6.0 16.0 0.00 0.00 0.00 56 1018.2
20260506175046 39 298 9.0 16.0 0.00 0.00 0.00 55 1018.1
20260506174543 39 340 4.0 9.0 0.00 0.00 0.00 56 1018.2
20260506174042 39 320 4.0 14.0 0.00 0.00 0.00 56 1018.2
20260506173543 39 290 8.0 14.0 0.00 0.00 0.00 57 1018.2
20260506173055 39 267 6.0 13.0 0.00 0.00 0.00 57 1018.2
20260506172542 39 301 4.0 13.0 0.00 0.00 0.00 58 1018.3
20260506172042 39 290 4.0 13.0 0.00 0.00 0.00 58 1018.3
20260506171540 39 323 5.0 13.0 0.00 0.00 0.00 58 1018.4
20260506171041 38 330 4.0 10.0 0.00 0.00 0.00 57 1018.4
20260506170540 39 311 4.0 12.0 0.00 0.00 0.00 57 1018.5
20260506170040 39 290 5.0 12.0 0.00 0.00 0.00 57 1018.5
20260506165537 39 9 2.0 8.0 0.00 0.00 0.00 58 1018.5
20260506165037 38 27 3.0 10.0 0.00 0.00 0.00 58 1018.5
20260506164539 38 328 4.0 10.0 0.00 0.00 0.00 58 1018.5
20260506164037 38 8 4.0 12.0 0.00 0.00 0.00 57 1018.6
20260506163537 38 285 4.0 14.0 0.00 0.00 0.00 58 1018.5
20260506163038 38 335 5.0 14.0 0.00 0.00 0.00 57 1018.6
20260506162534 38 44 3.0 10.0 0.00 0.00 0.00 57 1018.6
20260506162034 38 329 3.0 10.0 0.00 0.00 0.00 59 1018.6
20260506161532 38 255 4.0 12.0 0.00 0.00 0.00 58 1018.5
20260506161032 38 328 4.0 12.0 0.00 0.00 0.00 58 1018.5
20260506160532 38 278 4.0 10.0 0.00 0.00 0.00 59 1018.6
20260506160032 38 340 5.0 10.0 0.00 0.00 0.00 58 1018.6
20260506155532 38 63 3.0 9.0 0.00 0.00 0.00 58 1018.5
20260506155030 38 314 1.0 6.0 0.00 0.00 0.00 59 1018.6
20260506154529 38 8 2.0 11.0 0.00 0.00 0.00 59 1018.5
20260506154028 37 18 4.0 11.0 0.00 0.00 0.00 59 1018.5
20260506153527 37 16 3.0 10.0 0.00 0.00 0.00 60 1018.5
20260506153025 37 357 3.0 11.0 0.00 0.00 0.00 61 1018.5
20260506152526 37 325 5.0 11.0 0.00 0.00 0.00 60 1018.5
20260506152024 36 353 3.0 15.0 0.00 0.00 0.00 61 1018.5
20260506151524 36 321 6.0 15.0 0.00 0.00 0.00 60 1018.5
20260506151023 36 340 4.0 11.0 0.00 0.00 0.00 60 1018.4
20260506150523 36 311 3.0 11.0 0.00 0.00 0.00 61 1018.4
20260506150022 36 341 5.0 11.0 0.00 0.00 0.00 61 1018.5
20260506145521 36 311 3.0 8.0 0.00 0.00 0.00 62 1018.5
20260506145021 36 29 4.0 9.0 0.00 0.00 0.00 61 1018.4
20260506144522 36 330 3.0 9.0 0.00 0.00 0.00 62 1018.4
20260506144021 36 303 3.0 9.0 0.00 0.00 0.00 62 1018.5
20260506143520 36 26 0.0 9.0 0.00 0.00 0.00 63 1018.5
20260506143022 36 349 3.0 9.0 0.00 0.00 0.00 61 1018.5
20260506142519 36 352 2.0 11.0 0.00 0.00 0.00 62 1018.5
20260506142020 36 347 4.0 8.0 0.00 0.00 0.00 61 1018.5
20260506141519 36 47 1.0 8.0 0.00 0.00 0.00 63 1018.4
20260506141019 35 16 1.0 12.0 0.00 0.00 0.00 62 1018.5
20260506140518 35 41 4.0 12.0 0.00 0.00 0.00 62 1018.5
20260506140018 35 307 2.0 8.0 0.00 0.00 0.00 63 1018.4
20260506135516 35 339 3.0 8.0 0.00 0.00 0.00 62 1018.4
20260506135015 36 352 4.0 8.0 0.00 0.00 0.00 62 1018.3
20260506134514 36 20 1.0 7.0 0.00 0.00 0.00 63 1018.3
20260506134019 35 18 2.0 7.0 0.00 0.00 0.00 63 1018.3
20260506133513 35 57 1.0 7.0 0.00 0.00 0.00 63 1018.2
20260506133012 35 345 3.0 6.0 0.00 0.00 0.00 63 1018.2
20260506132513 35 15 3.0 6.0 0.00 0.00 0.00 64 1018.0
20260506132010 35 318 2.0 6.0 0.00 0.00 0.00 64 1018.0
20260506131509 35 335 3.0 6.0 0.00 0.00 0.00 64 1017.9
20260506131008 35 328 3.0 6.0 0.00 0.00 0.00 64 1017.9
20260506130507 35 6 1.0 8.0 0.00 0.00 0.00 66 1017.8
20260506130000 35 360 3.0 9.0 0.00 0.00 0.00 65 1017.7
20260506125559 35 340 4.0 9.0 0.00 0.00 0.00 65 1017.7
20260506125059 35 297 2.0 7.0 0.00 0.00 0.00 66 1017.6
20260506124601 35 341 2.0 8.0 0.00 0.00 0.00 66 1017.6
20260506124057 35 320 4.0 8.0 0.00 0.00 0.00 67 1017.4
20260506123558 34 329 1.0 8.0 0.00 0.00 0.00 68 1017.4
20260506122507 34 302 0.0 8.0 0.00 0.00 0.00 69 1017.4
20260506122044 34 4 1.0 8.0 0.00 0.00 0.00 69 1017.3
20260506121534 34 6 0.0 6.0 0.00 0.00 0.00 70 1017.2
20260506121039 34 9 1.0 6.0 0.00 0.00 0.00 70 1017.2
20260506120535 34 321 2.0 6.0 0.00 0.00 0.00 70 1017.2
20260506120039 33 352 1.0 6.0 0.00 0.00 0.00 71 1017.1
20260506115534 33 11 1.0 6.0 0.00 0.00 0.00 71 1017.0
20260506115030 33 341 1.0 4.0 0.00 0.00 0.00 72 1017.0
20260506114531 33 353 0.0 2.0 0.00 0.00 0.00 73 1017.0
20260506114030 33 320 0.0 4.0 0.00 0.00 0.00 73 1016.9
20260506113530 32 339 1.0 4.0 0.00 0.00 0.00 74 1016.9
20260506113038 32 349 0.0 3.0 0.00 0.00 0.00 74 1016.8
20260506112531 32 356 1.0 3.0 0.00 0.00 0.00 74 1016.7
20260506112033 32 315 0.0 4.0 0.00 0.00 0.00 75 1016.7
20260506111531 32 354 0.0 4.0 0.00 0.00 0.00 75 1016.6
20260506111029 32 8 1.0 3.0 0.00 0.00 0.00 75 1016.7
20260506110531 32 32 0.0 2.0 0.00 0.00 0.00 75 1016.8
20260506110029 32 354 0.0 3.0 0.00 0.00 0.00 75 1016.8
20260506105528 32 339 0.0 3.0 0.00 0.00 0.00 75 1016.8
20260506105030 31 353 0.0 4.0 0.00 0.00 0.00 76 1016.8
20260506104533 31 298 1.0 4.0 0.00 0.00 0.00 76 1016.8
20260506104026 31 283 0.0 5.0 0.00 0.00 0.00 76 1016.8
20260506103527 31 354 1.0 5.0 0.00 0.00 0.00 77 1016.7
20260506103127 31 349 0.0 4.0 0.00 0.00 0.00 77 1016.7
20260506102525 31 311 0.0 6.0 0.00 0.00 0.00 77 1016.7
20260506102025 31 305 1.0 6.0 0.00 0.00 0.00 77 1016.6
20260506101525 31 290 0.0 4.0 0.00 0.00 0.00 77 1016.6
20260506101023 31 301 1.0 5.0 0.00 0.00 0.00 77 1016.4
20260506100523 31 315 0.0 5.0 0.00 0.00 0.00 77 1016.5
20260506100022 31 340 0.0 3.0 0.00 0.00 0.00 77 1016.3
20260506095521 31 322 0.0 4.0 0.00 0.00 0.00 77 1016.4
20260506095021 31 311 0.0 4.0 0.00 0.00 0.00 78 1016.3
20260506094521 31 321 0.0 4.0 0.00 0.00 0.00 77 1016.3
20260506094020 31 317 0.0 4.0 0.00 0.00 0.00 78 1016.3
20260506093520 31 332 0.0 3.0 0.00 0.00 0.00 78 1016.3
20260506093020 31 338 0.0 3.0 0.00 0.00 0.00 78 1016.3
20260506092520 31 288 0.0 3.0 0.00 0.00 0.00 78 1016.3
20260506092020 31 312 0.0 3.0 0.00 0.00 0.00 78 1016.3
20260506091520 31 314 0.0 4.0 0.00 0.00 0.00 78 1016.4
20260506091019 31 307 1.0 3.0 0.00 0.00 0.00 78 1016.3
20260506090518 31 271 1.0 3.0 0.00 0.00 0.00 78 1016.3
20260506090022 31 305 1.0 3.0 0.00 0.00 0.00 78 1016.2
20260506085516 31 307 0.0 2.0 0.00 0.00 0.00 78 1016.2
20260506085016 31 295 0.0 2.0 0.00 0.00 0.00 78 1016.0
20260506084515 31 302 0.0 2.0 0.00 0.00 0.00 78 1016.0
20260506084015 31 309 0.0 1.0 0.00 0.00 0.00 78 1015.9
20260506083515 31 315 0.0 1.0 0.00 0.00 0.00 78 1015.8
20260506083014 31 301 0.0 1.0 0.00 0.00 0.00 77 1015.8
20260506082512 31 301 0.0 1.0 0.00 0.00 0.00 77 1015.8
20260506082012 31 305 0.0 2.0 0.00 0.00 0.00 76 1015.8
20260506081512 31 302 0.0 2.0 0.00 0.00 0.00 76 1015.8
20260506081015 32 291 0.0 3.0 0.00 0.00 0.00 77 1015.8
20260506080511 32 288 2.0 3.0 0.00 0.00 0.00 77 1015.9
20260506073505 32 299 1.0 3.0 0.00 0.00 0.00 75 1015.7
20260506073005 32 293 1.0 2.0 0.00 0.00 0.00 76 1015.6
20260506072504 32 280 1.0 2.0 0.00 0.00 0.00 74 1015.6
20260506072002 32 299 0.0 1.0 0.00 0.00 0.00 71 1015.6
20260506071502 32 336 0.0 1.0 0.00 0.00 0.00 70 1015.6
20260506071000 32 343 0.0 1.0 0.00 0.00 0.00 69 1015.5
20260506070602 32 349 0.0 1.0 0.00 0.00 0.00 68 1015.6
20260506070104 33 349 0.0 2.0 0.00 0.00 0.00 68 1015.6
20260506062055 33 23 0.0 2.0 0.00 0.00 0.00 65 1015.6
20260506061554 33 22 0.0 2.0 0.00 0.00 0.00 65 1015.5
20260506061054 33 25 0.0 2.0 0.00 0.00 0.00 66 1015.6
20260506060553 33 22 0.0 1.0 0.00 0.00 0.00 66 1015.6
20260506051044 34 51 1.0 3.0 0.00 0.00 0.00 64 1015.3
20260506050544 35 49 1.0 3.0 0.00 0.00 0.00 63 1015.3
20260506045042 35 51 2.0 6.0 0.00 0.00 0.00 62 1015.2
20260506044542 35 71 2.0 6.0 0.00 0.00 0.00 62 1015.2
20260506044141 36 49 1.0 8.0 0.00 0.00 0.00 62 1015.2
20260506043541 35 40 2.0 8.0 0.00 0.00 0.00 62 1015.2
20260506043041 36 41 0.0 2.0 0.00 0.00 0.00 62 1015.2
20260506042541 36 12 0.0 2.0 0.00 0.00 0.00 61 1015.1
20260506042040 36 30 0.0 4.0 0.00 0.00 0.00 61 1015.1
20260506041540 36 12 1.0 4.0 0.00 0.00 0.00 61 1015.1
20260506041039 36 13 1.0 4.0 0.00 0.00 0.00 61 1015.1
20260506040539 36 18 1.0 7.0 0.00 0.00 0.00 61 1015.1
20260506040038 36 18 2.0 7.0 0.00 0.00 0.00 61 1015.0
20260506035537 36 22 0.0 3.0 0.00 0.00 0.00 61 1015.0
20260506035039 36 20 0.0 3.0 0.00 0.00 0.00 60 1014.9
20260506034545 37 16 0.0 5.0 0.00 0.00 0.00 60 1014.9
20260506034035 37 11 0.0 5.0 0.00 0.00 0.00 60 1014.9
20260506033534 37 11 1.0 4.0 0.00 0.00 0.00 60 1014.8
20260506033034 37 360 0.0 4.0 0.00 0.00 0.00 60 1014.7
20260506032537 37 39 1.0 4.0 0.00 0.00 0.00 60 1014.7
20260506032034 37 34 0.0 2.0 0.00 0.00 0.00 60 1014.6
20260506031534 37 15 0.0 2.0 0.00 0.00 0.00 59 1014.6
20260506031034 37 38 0.0 3.0 0.00 0.00 0.00 59 1014.6
20260506030533 37 8 0.0 3.0 0.00 0.00 0.00 58 1014.6
20260506030039 38 44 0.0 3.0 0.00 0.00 0.00 58 1014.6
20260506025532 38 23 0.0 5.0 0.00 0.00 0.00 57 1014.4
20260506025031 38 27 1.0 6.0 0.00 0.00 0.00 56 1014.4
20260506024553 39 25 1.0 7.0 0.00 0.00 0.00 56 1014.5
20260506024031 39 359 3.0 8.0 0.00 0.00 0.00 56 1014.5
20260506023531 39 356 2.0 8.0 0.00 0.00 0.00 56 1014.4
20260506023029 39 335 3.0 9.0 0.00 0.00 0.00 56 1014.3
20260506022528 39 13 1.0 9.0 0.00 0.00 0.00 56 1014.2
20260506022027 39 340 3.0 6.0 0.00 0.00 0.00 56 1014.2
20260506021528 39 358 1.0 8.0 0.00 0.00 0.00 56 1014.1
20260506021028 39 359 3.0 8.0 0.00 0.00 0.00 55 1014.0
20260506020526 40 345 2.0 8.0 0.00 0.00 0.00 55 1013.9
20260506020024 40 18 3.0 11.0 0.00 0.00 0.00 55 1013.9
20260506015524 40 19 4.0 11.0 0.00 0.00 0.00 55 1013.8
20260506015024 40 12 4.0 9.0 0.00 0.00 0.00 54 1013.7
20260506014522 40 352 3.0 9.0 0.00 0.00 0.00 54 1013.7
20260506014023 41 12 3.0 8.0 0.00 0.00 0.00 54 1013.6
20260506013522 41 332 3.0 9.0 0.00 0.00 0.00 53 1013.6
20260506013034 41 8 3.0 9.0 0.00 0.00 0.00 53 1013.5
20260506012522 41 345 4.0 10.0 0.00 0.00 0.00 53 1013.5
20260506012020 42 338 3.0 10.0 0.00 0.00 0.00 52 1013.3
20260506011520 42 345 3.0 13.0 0.00 0.00 0.00 52 1013.3
20260506011020 42 335 5.0 11.0 0.00 0.00 0.00 52 1013.3
20260506010519 42 51 4.0 13.0 0.00 0.00 0.00 51 1013.1
20260506010024 43 333 5.0 13.0 0.00 0.00 0.00 50 1013.0
20260506005517 43 12 4.0 14.0 0.00 0.00 0.00 49 1013.0
20260506005017 44 341 5.0 14.0 0.00 0.00 0.00 48 1013.0
20260506004517 44 330 4.0 12.0 0.00 0.00 0.00 48 1013.0
20260506004017 44 34 5.0 15.0 0.00 0.00 0.00 47 1012.9
20260506003517 44 9 7.0 16.0 0.00 0.00 0.00 46 1012.9
20260506003018 44 360 6.0 16.0 0.00 0.00 0.00 46 1012.8
20260506002515 44 349 3.0 12.0 0.00 0.00 0.00 46 1012.8
20260506002015 45 325 4.0 13.0 0.00 0.00 0.00 46 1012.5
20260506001514 45 342 3.0 13.0 0.00 0.00 0.00 46 1012.5
20260506001014 45 26 3.0 10.0 0.00 0.00 0.00 45 1012.5
20260506000514 45 46 5.0 10.0 0.00 0.00 0.00 45 1012.4
20260506000013 45 27 2.0 11.0 0.00 0.00 0.00 45 1012.4
20260505235512 45 49 3.0 13.0 0.00 0.00 0.00 45 1012.4
20260505235012 45 13 4.0 13.0 0.00 0.00 0.00 44 1012.4
20260505234512 46 323 4.0 17.0 0.00 0.00 0.00 44 1012.3
20260505234013 46 325 6.0 16.0 0.00 0.00 0.00 44 1012.3
20260505233510 45 311 3.0 10.0 0.00 0.00 0.00 45 1012.2
20260505233015 46 12 5.0 16.0 0.00 0.00 0.00 44 1012.2
20260505232508 46 46 8.0 16.0 0.00 0.00 0.00 44 1012.2
20260505232008 46 19 4.0 13.0 0.00 0.00 0.00 44 1012.0
20260505231508 47 342 6.0 12.0 0.00 0.00 0.00 43 1012.0
20260505231013 47 351 8.0 15.0 0.00 0.00 0.00 43 1011.9
20260505230508 47 290 5.0 15.0 0.00 0.00 0.00 44 1011.9
20260505230022 47 14 6.0 15.0 0.00 0.00 0.00 43 1012.0
20260505225507 47 323 7.0 15.0 0.00 0.00 0.00 43 1011.9
20260505225007 47 325 5.0 14.0 0.00 0.00 0.00 43 1011.8
20260505224506 47 340 7.0 17.0 0.00 0.00 0.00 42 1011.9
20260505224011 48 333 6.0 13.0 0.00 0.00 0.00 42 1011.8
20260505223506 47 320 3.0 10.0 0.00 0.00 0.00 43 1011.8
20260505223006 47 309 3.0 11.0 0.00 0.00 0.00 43 1011.8
20260505222506 47 326 4.0 17.0 0.00 0.00 0.00 43 1011.8
20260505222006 47 345 7.0 17.0 0.00 0.00 0.00 42 1011.8
20260505221506 48 339 6.0 15.0 0.00 0.00 0.00 41 1011.7
20260505221005 48 349 4.0 15.0 0.00 0.00 0.00 41 1011.6
20260505220505 47 93 7.0 15.0 0.00 0.00 0.00 41 1011.6
20260505220006 48 314 6.0 16.0 0.00 0.00 0.00 41 1011.6
20260505215505 48 278 9.0 16.0 0.00 0.00 0.00 40 1011.5
20260505215005 48 274 6.0 18.0 0.00 0.00 0.00 41 1011.7
20260505214506 48 328 6.0 18.0 0.00 0.00 0.00 40 1011.7
20260505214006 48 274 7.0 14.0 0.00 0.00 0.00 43 1011.8
20260505213503 48 294 4.0 12.0 0.00 0.00 0.00 43 1011.8
20260505213002 47 300 5.0 12.0 0.00 0.00 0.00 45 1011.8
20260505212504 46 340 6.0 19.0 0.00 0.00 0.00 44 1011.9
20260505212002 47 278 13.0 19.0 0.00 0.00 0.00 42 1011.8